ONEWEB-0063, 45448

Orbit data source: Space-Track

ONEWEB-0063, 45448 is a payload satellite owned by One Web (UK) in LEO that was launched on Sat, 21 Mar 2020 UTC via a SOYUZ-2-1B launch vehicle from the Tyuratam Missile And Space Complex (TTMTR). Payload-class satellites include a variety of spacecraft equipped with specific instruments for various scientific and technological missions. These include communications satellites like Starlink; space stations such as the ISS; scientific satellites like the Hubble; Earth observation satellites from companies like Planet Labs, Umbra, and HawkEye 360; GPS; miniature CubeSats for education and research; and military/defense satellites.

Loading next visibility...
Identifier
45448, 2020-020AA
Orbit
LEO
Country
Flag of UKUK
Related business
Manufacturer
One Web
Mission
Operational Commercial Communications
Bus & Motor
ARROW, Unknown motor
Mass
148 kg wet, ~140 kg dry
Launch date (UTC)
2020-03-21 (6 years ago)
Launch vehicle
SOYUZ-2-1B
Launch site
Tyuratam Missile And Space Complex (TTMTR)
Object type
Payload
Rocket body
Debris
Shape & HBR
Trap Box + 2 Pan, 6.7 m
Radar Cross Section
3.464 m², Large (>1 m²)

Expand to show TLE details & history
Last TLE update: 15 hours ago

TLE from 15 hours ago
0 ONEWEB-0063
1 45448U 20020AA  26254.54191357  .00000212  00000-0  56159-3 0  9997
2 45448  87.8971   3.9043 0001704 110.8715 249.2595 13.11414775314010
Epoch: 2026-09-11T13:00Z
TLE epoch observation values (Epoch: 2026-09-11T13:00:21.332Z)
Latitude
-0.00007°
Longitude
178.25163°
Altitude
1,221.039 km
Speed
7.244 km/s
True Right ascension
00h 15m 37s
True Declination
0° 00' 00"
Sunlit
Object was in full shadow at epoch
Visualization orbit readout
Latitude
Unknown
Longitude
Unknown
Altitude
Unknown
Speed
Unknown
Apparent Right ascension
Unknown
Apparent Declination
Unknown
Sunlit
N/A
Visualization observer readout
Local Sidereal Time
20:04:43
Azimuth
Unknown
Elevation
Unknown
Doppler factor
Unknown
Orbital elements
Apogee altitude
1,216.103 km
Perigee altitude
1,213.515 km
Semi-major axis
7,592.946 km
Eccentricity
0.00017
Inclination
87.8971°
RAAN
3.9043°
Arg. of periapsis
110.8715°
True anomaly
249.24124°
Mean anomaly
249.2595°
Eccentric anomaly
249.25037°
Mean motion
3.28041 °/min
Orbital period
109.74 mins
BSTAR
0.00056159
Loading maneuver chart data...
Computing Atmospheric mass density...
Loading historical data...
Loading historical data...
Loading historical data...
Loading historical data...
Loading historical data...
Loading historical data...
Loading historical data...

Documentation

Showing up to 5 results
|